TimeEDT,TemperatureF,Dew PointF,Humidity,Sea Level PressureIn,VisibilityMPH,Wind Direction,Wind SpeedMPH,Gust SpeedMPH,PrecipitationIn,Events,Conditions,WindDirDegrees,DateUTC
12:15 AM,72.5,69.8,91,30.17,10.0,South,3.5,-,N/A,,Clear,180,2013-07-09 04:15:00
12:35 AM,71.8,69.6,93,30.17,10.0,South,4.6,-,N/A,,Clear,190,2013-07-09 04:35:00
12:55 AM,71.6,69.4,93,30.17,10.0,SSW,3.5,-,N/A,,Clear,200,2013-07-09 04:55:00
1:15 AM,71.2,69.1,93,30.16,10.0,SSW,3.5,-,N/A,,Clear,200,2013-07-09 05:15:00
1:35 AM,71.2,69.1,93,30.16,10.0,SSW,3.5,-,N/A,,Clear,200,2013-07-09 05:35:00
1:55 AM,71.1,69.1,93,30.16,10.0,South,5.8,-,N/A,,Clear,190,2013-07-09 05:55:00
2:15 AM,71.2,68.9,92,30.16,10.0,South,8.1,-,N/A,,Clear,190,2013-07-09 06:15:00
2:35 AM,71.2,68.9,92,30.16,10.0,SSW,5.8,-,N/A,,Clear,200,2013-07-09 06:35:00
2:55 AM,71.1,68.7,92,30.16,10.0,SSW,5.8,-,N/A,,Clear,200,2013-07-09 06:55:00
3:15 AM,71.2,68.9,92,30.16,10.0,SSW,5.8,-,N/A,,Clear,210,2013-07-09 07:15:00
3:35 AM,71.2,68.9,92,30.16,10.0,SSW,5.8,-,N/A,,Clear,210,2013-07-09 07:35:00
3:55 AM,71.1,68.9,93,30.14,10.0,SSW,5.8,-,N/A,,Clear,210,2013-07-09 07:55:00
4:15 AM,71.2,69.3,93,30.14,10.0,SW,4.6,-,N/A,,Clear,230,2013-07-09 08:15:00
4:35 AM,71.6,69.4,93,30.14,5.0,SW,4.6,-,N/A,,Clear,230,2013-07-09 08:35:00
4:55 AM,71.6,69.8,94,30.15,7.0,SW,5.8,-,N/A,,Clear,220,2013-07-09 08:55:00
5:15 AM,71.8,70.0,94,30.14,7.0,SW,6.9,-,N/A,,Mostly Cloudy,220,2013-07-09 09:15:00
5:35 AM,72.5,70.7,94,30.15,5.0,SW,8.1,-,N/A,,Overcast,230,2013-07-09 09:35:00
5:55 AM,72.7,70.9,94,30.15,5.0,SW,9.2,-,N/A,,Overcast,230,2013-07-09 09:55:00
6:15 AM,72.9,71.1,94,30.15,5.0,SW,6.9,-,N/A,,Overcast,230,2013-07-09 10:15:00
6:35 AM,73.2,71.1,93,30.16,4.0,SW,5.8,-,N/A,,Overcast,230,2013-07-09 10:35:00
6:55 AM,73.4,71.4,93,30.16,4.0,SW,5.8,-,N/A,,Overcast,230,2013-07-09 10:55:00
7:15 AM,73.6,71.6,93,30.16,4.0,SW,3.5,-,N/A,,Overcast,220,2013-07-09 11:15:00
7:35 AM,74.3,72.0,92,30.16,4.0,SW,4.6,-,N/A,,Overcast,230,2013-07-09 11:35:00
7:55 AM,74.3,71.8,92,30.15,5.0,SW,3.5,-,N/A,,Overcast,220,2013-07-09 11:55:00
8:15 AM,74.7,72.1,92,30.16,5.0,SSW,4.6,-,N/A,,Overcast,210,2013-07-09 12:15:00
8:35 AM,75.0,72.3,91,30.16,5.0,SSW,5.8,-,N/A,,Overcast,200,2013-07-09 12:35:00
8:55 AM,75.6,72.3,90,30.16,7.0,SSW,3.5,-,N/A,,Overcast,210,2013-07-09 12:55:00
9:15 AM,75.9,72.5,89,30.16,5.0,SSW,3.5,-,N/A,,Overcast,210,2013-07-09 13:15:00
9:35 AM,77.0,72.7,86,30.17,7.0,South,6.9,-,N/A,,Overcast,190,2013-07-09 13:35:00
9:55 AM,77.5,72.7,85,30.17,7.0,South,6.9,-,N/A,,Mostly Cloudy,180,2013-07-09 13:55:00
10:15 AM,77.4,72.7,85,30.17,10.0,South,6.9,-,N/A,,Mostly Cloudy,190,2013-07-09 14:15:00
10:35 AM,77.2,72.5,85,30.17,10.0,South,6.9,-,N/A,,Overcast,190,2013-07-09 14:35:00
10:55 AM,77.9,72.7,84,30.18,10.0,South,6.9,-,N/A,,Overcast,180,2013-07-09 14:55:00
11:15 AM,77.9,72.7,84,30.18,10.0,SSW,6.9,-,N/A,,Overcast,210,2013-07-09 15:15:00
11:35 AM,78.1,72.7,83,30.18,10.0,South,4.6,-,N/A,,Overcast,190,2013-07-09 15:35:00
11:55 AM,79.9,73.2,80,30.18,10.0,South,5.8,-,N/A,,Overcast,190,2013-07-09 15:55:00
12:15 PM,80.2,73.4,80,30.18,10.0,South,5.8,-,N/A,,Mostly Cloudy,190,2013-07-09 16:15:00
12:35 PM,81.3,73.4,77,30.17,10.0,South,5.8,-,N/A,,Mostly Cloudy,190,2013-07-09 16:35:00
12:55 PM,82.2,73.4,75,30.17,10.0,South,3.5,-,N/A,,Scattered Clouds,190,2013-07-09 16:55:00
1:15 PM,84.0,72.9,69,30.16,10.0,SSW,3.5,-,N/A,,Scattered Clouds,200,2013-07-09 17:15:00
1:35 PM,84.4,72.7,68,30.15,10.0,Calm,Calm,-,N/A,,Scattered Clouds,0,2013-07-09 17:35:00
1:55 PM,85.1,72.3,65,30.14,10.0,SW,3.5,-,N/A,,Mostly Cloudy,230,2013-07-09 17:55:00
2:15 PM,85.3,71.8,64,30.14,10.0,South,8.1,-,N/A,,Mostly Cloudy,190,2013-07-09 18:15:00
2:35 PM,85.1,71.6,64,30.13,10.0,SSW,5.8,-,N/A,,Mostly Cloudy,210,2013-07-09 18:35:00
2:55 PM,85.8,71.6,62,30.12,10.0,SW,6.9,-,N/A,,Mostly Cloudy,220,2013-07-09 18:55:00
3:15 PM,84.4,71.4,65,30.12,10.0,SSW,8.1,-,N/A,,Scattered Clouds,210,2013-07-09 19:15:00
3:35 PM,85.3,70.9,62,30.11,10.0,SSW,8.1,-,N/A,,Scattered Clouds,200,2013-07-09 19:35:00
3:55 PM,85.1,70.0,60,30.11,10.0,SSW,9.2,-,N/A,,Scattered Clouds,210,2013-07-09 19:55:00
4:15 PM,83.8,70.5,64,30.10,10.0,SSW,4.6,-,N/A,,Clear,210,2013-07-09 20:15:00
4:35 PM,83.7,71.4,66,30.10,10.0,South,3.5,-,N/A,,Clear,170,2013-07-09 20:35:00
4:55 PM,83.5,72.0,68,30.10,10.0,SSW,4.6,-,N/A,,Clear,200,2013-07-09 20:55:00
5:15 PM,81.9,71.4,70,30.09,10.0,WSW,6.9,-,N/A,,Scattered Clouds,250,2013-07-09 21:15:00
5:35 PM,80.1,70.7,73,30.09,10.0,WSW,6.9,-,N/A,,Clear,240,2013-07-09 21:35:00
5:55 PM,79.2,70.5,75,30.10,10.0,SSW,12.7,17.3,N/A,,Clear,200,2013-07-09 21:55:00
6:15 PM,77.4,69.6,77,30.09,10.0,SSW,9.2,-,N/A,Rain,Light Rain,200,2013-07-09 22:15:00
6:35 PM,77.2,70.3,79,30.09,10.0,South,6.9,-,N/A,,Light Drizzle,190,2013-07-09 22:35:00
6:55 PM,77.9,70.5,78,30.08,10.0,South,5.8,-,N/A,,Clear,180,2013-07-09 22:55:00
7:15 PM,77.5,70.7,79,30.08,10.0,SSW,6.9,-,N/A,,Clear,200,2013-07-09 23:15:00
7:35 PM,77.0,70.9,81,30.10,10.0,South,6.9,-,N/A,,Clear,190,2013-07-09 23:35:00
7:55 PM,76.3,70.2,81,30.10,10.0,South,8.1,-,N/A,,Clear,180,2013-07-09 23:55:00
8:15 PM,75.6,70.3,84,30.11,10.0,South,4.6,-,N/A,,Clear,170,2013-07-10 00:15:00
8:35 PM,75.2,70.9,86,30.11,10.0,South,6.9,-,N/A,,Clear,180,2013-07-10 00:35:00
8:55 PM,75.2,71.1,87,30.11,10.0,South,6.9,-,N/A,,Clear,190,2013-07-10 00:55:00
9:15 PM,75.0,71.1,87,30.11,10.0,South,5.8,-,N/A,,Clear,190,2013-07-10 01:15:00
9:35 PM,74.8,71.2,88,30.11,10.0,SSW,5.8,-,N/A,,Clear,200,2013-07-10 01:35:00
9:55 PM,75.2,71.1,87,30.12,10.0,SSW,5.8,-,N/A,,Clear,200,2013-07-10 01:55:00
10:15 PM,75.0,71.1,87,30.11,10.0,South,6.9,-,N/A,,Clear,190,2013-07-10 02:15:00
10:35 PM,74.7,71.2,89,30.11,10.0,South,5.8,-,N/A,,Clear,180,2013-07-10 02:35:00
10:55 PM,74.5,71.1,89,30.11,10.0,SSW,8.1,-,N/A,,Clear,200,2013-07-10 02:55:00
11:15 PM,74.3,70.7,88,30.12,10.0,SSW,8.1,-,N/A,,Clear,210,2013-07-10 03:15:00
11:35 PM,73.8,70.0,88,30.13,10.0,SSW,8.1,-,N/A,,Clear,210,2013-07-10 03:35:00
11:55 PM,73.6,69.1,86,30.12,10.0,SSW,8.1,-,N/A,,Clear,200,2013-07-10 03:55:00